Barranquilla, Colombia

11:25 AM -05 on October 20, 2017 (GMT -0500)
Ernesto Cortissoz

Weather History for SKBQ - May, 2014

Change the Weather History Date:

Thursday, May 29, 2014

  Actual Average Record
Temperature  
Mean Temperature 82 °F -  
Max Temperature 91 °F 91 °F 95 °F (2015)
Min Temperature 73 °F 76 °F 73 °F (1998)
Cooling Degree Days 17    
Growing Degree Days 32 (Base 50)    
Moisture  
Dew Point 78 °F    
Average Humidity 89    
Maximum Humidity 100    
Minimum Humidity 61    
Precipitation  
Precipitation 0.00 in 0.14 in - ()
Sea Level Pressure  
Sea Level Pressure 29.84 in    
Wind  
Wind Speed 5 mph ()    
Max Wind Speed 20 mph    
Max Gust Speed -    
Visibility 4.3 miles    
Events Fog , Rain , Thunderstorm    
Averages and records for this station are not official NWS values.
T = Trace of Precipitation, MM = Missing Value Source: Averaged Metar Reports

Daily Weather History Graph

Daily Weather History Graph

Search for Another Location

Airport or City:

Trip Planner

Search our weather history database for the weather conditions in past years. The results will help you decide how hot, cold, wet, or windy it might be!

Date:

Astronomy

May. 29, 2014 Rise Set
Actual Time 5:35 AM -05 6:17 PM -05
Civil Twilight 5:12 AM -05 6:40 PM -05
Nautical Twilight 4:45 AM -05 7:07 PM -05
Astronomical Twilight 4:18 AM -05 7:34 PM -05
Moon 6:18 AM -05 (5/29) 7:14 PM -05 (5/29)
Length of Visible Light 13h 28m
Length of Day
12h 42m
New Moon, 1% of the Moon is Illuminated
May 29
New Moon
Jun 5
First Quarter
Jun 12
Full
Jun 19
Last Quarter
Jun 27
New

Hourly Weather History & Observations

Time (-05) Temp. Heat Index Dew Point Humidity Pressure Visibility Wind Dir Wind Speed Gust Speed Precip Events Conditions
1:00 AM 80.6 °F 88.1 °F 78.8 °F 94% 29.82 in - NE 6.9 mph - N/A   Clear
2:00 AM 80.6 °F 88.1 °F 78.8 °F 94% 29.79 in - NE 4.6 mph - N/A   Unknown
3:00 AM 80.6 °F 88.1 °F 78.8 °F 94% 29.77 in - NE 4.6 mph - N/A   Clear
4:00 AM 80 °F - 78 °F 93% 29.79 in 6 mi NE 6.7 mph - -   Haze
5:00 AM 78.8 °F - 77.0 °F 94% 29.80 in 3.1 mi ESE 4.6 mph - N/A   Scattered Clouds
7:00 AM 79 °F - 78 °F 96% 29.84 in 2 mi Calm Calm - -   Mist
7:00 AM 78.8 °F - 78.8 °F 100% 29.83 in 1.9 mi Calm Calm - N/A   Mostly Cloudy
8:00 AM 80.6 °F 88.1 °F 78.8 °F 94% 29.85 in 2.5 mi SE 4.6 mph - N/A   Mostly Cloudy
9:00 AM 82.4 °F 92.4 °F 78.8 °F 89% 29.86 in 3.1 mi SSW 5.8 mph - N/A   Mostly Cloudy
9:42 AM 86.0 °F 99.3 °F 78.8 °F 79% 29.86 in 5.0 mi SE 9.2 mph - N/A Fog Fog
10:00 AM 86.0 °F 99.3 °F 78.8 °F 79% 29.87 in - SE 6.9 mph - N/A   Mostly Cloudy
11:00 AM 89.6 °F 104.7 °F 78.8 °F 70% 29.87 in 6.2 mi South 4.6 mph - N/A   Scattered Clouds
12:00 PM 91.4 °F 107.2 °F 78.8 °F 66% 29.85 in 6.2 mi South 5.8 mph - N/A   Scattered Clouds
1:00 PM 90 °F - 78 °F 61% 29.84 in 5 mi ESE 6.7 mph - -   Mostly Cloudy
1:00 PM 91.4 °F 107.2 °F 78.8 °F 66% 29.83 in 5.0 mi ESE 6.9 mph - N/A   Scattered Clouds
1:40 PM 84.2 °F 94.1 °F 77.0 °F 79% 29.82 in 1.9 mi NE 9.2 mph - N/A Rain Heavy Rain
2:00 PM 78.8 °F - 75.2 °F 89% 29.84 in 0.3 mi North 19.6 mph - N/A Rain , Thunderstorm Heavy Thunderstorms and Rain
2:45 PM 73.4 °F - 73.4 °F 100% 29.85 in 1.9 mi SW 6.9 mph - N/A Rain , Thunderstorm Thunderstorms and Rain
3:00 PM 73.4 °F - 73.4 °F 100% 29.83 in 5.0 mi NW 3.5 mph - N/A Rain Rain
4:00 PM 75.2 °F - 75.2 °F 100% 29.84 in 6.2 mi SW 4.6 mph - N/A   Light Drizzle
6:00 PM 78.8 °F - 77.0 °F 94% 29.83 in 5.0 mi Calm Calm - N/A   Scattered Clouds
7:00 PM 78.8 °F - 77.0 °F 94% 29.85 in 6.2 mi NW 4.6 mph - N/A   Mostly Cloudy
9:00 PM 78.8 °F - 78.8 °F 100% 29.88 in 6.2 mi NE 8.1 mph - N/A   Mostly Cloudy
10:00 PM 78.8 °F - 77.0 °F 94% 29.88 in 6.2 mi North 4.6 mph - N/A   Mostly Cloudy
11:00 PM 78.8 °F - 77.0 °F 94% 29.88 in 6.2 mi North 4.6 mph - N/A   Mostly Cloudy